{"data":{"norad_id":67901,"epoch":"2026-05-25T01:24:29.231424Z","epoch_age_seconds":70278,"freshness":"FRESH","line1":"1 67901U 26035Y   26145.05867166  .00022800  00000+0  70626-3 0  9991","line2":"2 67901  97.2837  78.6121 0001370  96.6956 263.4443 15.33452024 15694","mean_motion":15.33452024,"eccentricity":0.000137,"inclination_deg":97.2837,"raan_deg":78.6121,"arg_perigee_deg":96.6956,"mean_anomaly_deg":263.4443,"bstar":0.00070626,"rev_number":1569,"period_min":93.905774518056,"perigee_km":464.58469475489,"apogee_km":466.45985739653,"semimajor_km":6843.6592760757,"source":"CELESTRAK","updated_at":"2026-05-25T13:38:21.736507Z"}}